星链-1832 (STARLINK-1832 )

导读 | 豆包AI

STARLINK-1832是美国太空探索技术公司(SpaceX)星链(Starlink)星座的组网卫星,于北京时间2020年10月24日发射升空。星链计划旨在搭建全球卫星互联网,提供高速低延迟网络服务,该卫星承担为特定区域覆盖网络信号的任务,推动了卫星互联网星座的组网进程。

基本信息
目录编号:
46780
目录名称:
STARLINK-1832
国际标识:
2020-074AT
轨道中心:
EARTH
卫星名称:
星链-1832
卫星全名:
星链-1832 (STARLINK-1832 )
卫星状态:
在轨 (已飞行1988 天)
发射日期:
2020-10-24 UTC
国别 :
美国 (US)
星等 :
--
轨道信息
数据来源 国际轨道数据
星历时间: 2026-04-04T04:00:02+0800
7小时前
查看轨道信息
半长轴: 6685.845km
偏心率: 0.0005427
轨道倾角: 53.035°
近地点辐角 22.760°
升交点赤经 141.101°
平近点角 249.113°
近地点: 304.079km
远地点: 311.337km
周期: 90.676分钟
每日圈数: 15.880652
详细信息
固有亮度:
5
最大亮度:
2.5
卫星平台:
Starlink V1.0
覆盖范围:
全球
运营商:
太空探索技术公司
运营商所在国:
美国
制造商(研发单位):
太空探索技术公司
制造商所在国:
美国
使用方式:
暂无
卫星简介
星链(Starlink)计划是由太空探索技术公司(SpaceX)提出的一个巨型低轨卫星互联网星座项目,计划在2019年至2024年间在太空搭建由约1.2万颗卫星组成的“星链”网络,其中1584颗将部署在地球上空550千米处的近地轨道,并从2020年开始工作。该卫星仍在工作。
2D轨道图
3D轨道图
轨道高度分析图
轨道倾角分析图
轨道综合分析图
查看轨道综合分析图